Date String (YYYY-MM-DD hh:mm:ss) UTC,Instrument flags,Ambient pressure (hPa),Sample flow (lpm),Bypass flow (lpm),Sample temperature (°C),Ambient temperature (°C),ASC tube jacket temperature (°C),LED temperature (°C),Box temperature (°C),Sample RH (%),Span deviation,Mass concentration (μg/m³),Mass concentration (μg/m³),Mass concentration (μg/m³)
DateTimeUTC,F1_M11,P_M11,Q1_M11,Q2_M11,T1_M11,T2_M11,T3_M11,T4_M11,T5_M11,U1_M11,ZSPAN_M11,X2_M11,X0_M11,X1_M11
2023-05-02 13:00:00,,0829.5,4.99,0.00,26.7,25.1,00.0,35.1,28.3,15.2,0005.1,0006.37,0018.24,0004.82
2023-05-02 13:01:00,,0829.6,4.99,0.00,26.7,25.1,00.0,35.1,28.3,15.0,0005.0,0006.33,0017.51,0004.81
2023-05-02 13:02:00,,0829.5,5.00,0.00,26.7,25.1,00.0,35.1,28.2,14.9,0005.0,0006.24,0016.99,0004.81
2023-05-02 13:03:00,,0829.6,5.00,0.00,26.7,25.1,00.0,35.1,28.3,14.9,0004.9,0006.24,0015.89,0004.81
2023-05-02 13:04:00,,0829.6,5.01,0.00,26.7,25.1,00.0,35.1,28.3,15.0,0005.0,0006.31,0016.06,0004.81
2023-05-02 13:05:00,,0829.6,5.01,0.00,26.7,25.1,00.0,35.1,28.3,14.9,0005.2,0006.33,0017.70,0004.80
2023-05-02 13:06:00,,0829.6,5.00,0.00,26.7,25.1,00.0,35.1,28.2,14.9,0004.9,0006.33,0018.49,0004.81
2023-05-02 13:07:00,,0829.6,5.00,0.00,26.7,25.1,00.0,35.1,28.3,15.0,0004.8,0006.28,0018.09,0004.81
2023-05-02 13:08:00,,0829.7,5.00,0.00,26.7,25.1,00.0,35.1,28.3,15.2,0004.7,0006.24,0018.88,0004.81
2023-05-02 13:09:00,,0829.7,5.00,0.00,26.7,25.1,00.0,35.1,28.3,15.2,0004.5,0006.22,0018.34,0004.80
2023-05-02 13:10:00,,0829.7,4.99,0.00,26.7,25.1,00.0,35.1,28.3,15.2,0004.1,0006.22,0018.03,0004.81
2023-05-02 13:11:00,,0829.7,4.99,0.00,26.7,25.1,00.0,35.1,28.3,15.0,0003.6,0006.19,0017.58,0004.80
2023-05-02 13:12:00,,0829.7,5.01,0.00,26.7,25.1,00.0,35.1,28.3,15.0,0004.1,0006.16,0017.19,0004.79
2023-05-02 13:13:00,,0829.7,5.01,0.00,26.7,25.1,00.0,35.1,28.3,14.8,0004.3,0006.13,0016.74,0004.77
2023-05-02 13:14:00,,0829.7,5.01,0.00,26.7,25.1,00.0,35.1,28.2,14.9,0004.5,0006.10,0016.61,0004.76
2023-05-02 13:15:00,,0829.7,5.01,0.00,26.7,25.1,00.0,35.1,28.3,14.9,0004.3,0005.99,0016.56,0004.75
2023-05-02 13:16:00,,0829.7,5.00,0.00,26.7,25.1,00.0,35.1,28.3,14.9,0003.9,0005.95,0015.41,0004.74
2023-05-02 13:17:00,,0829.7,4.99,0.00,26.7,25.1,00.0,35.0,28.3,14.7,0004.4,0005.97,0014.26,0004.73
2023-05-02 13:18:00,,0829.7,4.99,0.00,26.7,25.1,00.0,35.0,28.3,14.8,0004.7,0005.96,0014.77,0004.72
2023-05-02 13:19:00,,0829.7,4.99,0.00,26.7,25.1,00.0,35.0,28.3,14.9,0004.7,0005.94,0013.73,0004.72
2023-05-02 13:20:00,,0829.7,5.00,0.00,26.7,25.1,00.0,35.0,28.3,14.9,0004.9,0005.92,0013.96,0004.71
2023-05-02 13:21:00,,0829.7,5.00,0.00,26.7,25.0,00.0,35.0,28.3,15.1,0002.9,0005.92,0013.99,0004.70
2023-05-02 13:22:00,,0829.7,5.00,0.00,26.7,25.1,00.0,35.0,28.2,15.2,0004.9,0005.95,0014.76,0004.70
2023-05-02 13:23:00,,0829.8,5.00,0.00,26.7,25.0,00.0,35.0,28.2,15.0,0005.1,0005.97,0015.60,0004.70
2023-05-02 13:24:00,,0829.8,5.00,0.00,26.7,25.0,00.0,35.0,28.2,15.1,0005.2,0005.97,0015.63,0004.71
2023-05-02 13:25:00,,0829.8,5.01,0.00,26.6,25.0,00.0,35.0,28.2,14.9,0005.2,0005.99,0015.43,0004.72
2023-05-02 13:26:00,,0829.8,5.00,0.00,26.6,25.0,00.0,35.0,28.1,15.0,0005.3,0006.08,0015.70,0004.73
2023-05-02 13:27:00,,0829.8,5.00,0.00,26.6,25.1,00.0,35.0,28.1,15.3,0004.9,0006.15,0017.01,0004.75
2023-05-02 13:28:00,,0829.9,5.00,0.00,26.6,25.1,00.0,35.0,28.1,15.3,0003.6,0006.14,0017.08,0004.75
2023-05-02 13:29:00,,0829.9,5.00,0.00,26.6,25.1,00.0,35.0,28.2,15.1,0003.5,0006.17,0017.19,0004.75
2023-05-02 13:30:00,,0829.9,5.00,0.00,26.6,25.1,00.0,35.0,28.2,15.1,0003.4,0006.19,0017.19,0004.74
2023-05-02 13:31:00,,0829.8,5.00,0.00,26.6,25.1,00.0,35.0,28.2,15.1,0003.6,0006.20,0016.84,0004.75
2023-05-02 13:32:00,,0829.8,5.00,0.00,26.6,25.1,00.0,35.0,28.2,15.0,0003.6,0006.15,0016.73,0004.75
2023-05-02 13:33:00,,0829.8,4.99,0.00,26.6,25.1,00.0,35.0,28.2,15.0,0003.0,0006.15,0015.99,0004.76
2023-05-02 13:34:00,,0829.8,5.00,0.00,26.6,25.0,00.0,35.0,28.2,15.2,0002.1,0006.13,0016.11,0004.76
2023-05-02 13:35:00,,0829.9,4.99,0.00,26.6,25.0,00.0,35.0,28.2,15.1,0002.6,0006.09,0016.00,0004.76
2023-05-02 13:36:00,,0829.9,5.01,0.00,26.6,25.0,00.0,35.0,28.2,15.1,0003.3,0006.05,0016.09,0004.77
2023-05-02 13:37:00,,0829.9,5.00,0.00,26.6,25.0,00.0,35.0,28.2,15.0,0000.0,0005.99,0015.70,0004.76
2023-05-02 13:38:00,,0829.9,5.01,0.00,26.6,25.0,00.0,35.0,28.2,14.8,0000.0,0005.97,0014.46,0004.76
2023-05-02 13:39:00,,0830.0,5.01,0.00,26.6,25.0,00.0,35.0,28.2,14.8,0003.3,0005.95,0015.00,0004.77
2023-05-02 13:40:00,,0829.9,5.00,0.00,26.6,25.0,00.0,35.0,28.2,14.8,0000.5,0005.93,0014.43,0004.78
2023-05-02 13:41:00,,0829.9,4.99,0.00,26.6,25.0,00.0,35.0,28.2,14.8,0000.0,0005.89,0014.44,0004.79
2023-05-02 13:42:00,,0829.9,5.00,0.00,26.6,25.0,00.0,35.0,28.2,14.8,0002.9,0005.89,0014.17,0004.80
2023-05-02 13:43:00,,0829.9,5.00,0.00,26.6,25.0,00.0,35.0,28.2,14.9,0005.6,0005.95,0014.10,0004.82
2023-05-02 13:44:00,,0829.9,5.01,0.00,26.6,25.0,00.0,35.0,28.2,14.9,0005.4,0005.95,0015.19,0004.84
2023-05-02 13:45:00,,0830.0,5.01,0.00,26.6,25.0,00.0,35.0,28.2,14.8,0005.4,0006.02,0014.57,0004.86
2023-05-02 13:46:00,,0830.0,4.98,0.00,26.6,25.0,00.0,35.0,28.2,15.0,0002.6,0006.11,0015.35,0004.86
2023-05-02 13:47:00,,0830.0,4.98,0.00,26.6,25.0,00.0,35.0,28.2,15.0,0000.0,0006.16,0015.93,0004.85
2023-05-02 13:48:00,,0830.0,5.00,0.00,26.6,25.0,00.0,35.0,28.2,14.9,0000.0,0006.16,0015.99,0004.85
2023-05-02 13:49:00,,0830.0,5.00,0.00,26.6,25.0,00.0,35.0,28.2,14.9,0001.7,0006.16,0015.98,0004.84
2023-05-02 13:50:00,,0830.0,5.00,0.00,26.6,25.0,00.0,35.0,28.2,14.9,0000.0,0006.18,0016.01,0004.83
2023-05-02 13:51:00,,0830.0,5.00,0.00,26.6,25.0,00.0,35.0,28.2,14.9,0000.0,0006.21,0016.14,0004.83
2023-05-02 13:52:00,,0830.0,5.00,0.00,26.6,25.0,00.0,35.0,28.2,15.0,0000.0,0006.24,0015.88,0004.81
2023-05-02 13:53:00,,0830.0,5.00,0.00,26.6,25.0,00.0,35.0,28.2,14.9,0000.0,0006.23,0016.35,0004.82
2023-05-02 13:54:00,,0829.9,5.00,0.00,26.6,25.0,00.0,35.0,28.2,14.6,0000.0,0006.24,0017.86,0004.82
2023-05-02 13:55:00,,0829.9,4.99,0.00,26.6,25.0,00.0,35.0,28.2,14.8,0004.7,0006.25,0017.45,0004.83
2023-05-02 13:56:00,,0830.0,5.00,0.00,26.6,25.1,00.0,35.0,28.2,14.8,0004.7,0006.20,0017.34,0004.81
2023-05-02 13:57:00,,0830.0,4.99,0.00,26.6,25.1,00.0,35.0,28.2,14.9,0004.7,0006.14,0016.70,0004.80
2023-05-02 13:58:00,,0830.0,4.99,0.00,26.6,25.1,00.0,34.9,28.2,15.2,0004.5,0006.09,0017.36,0004.80
2023-05-02 13:59:00,,0830.0,5.00,0.00,26.6,25.1,00.0,35.0,28.2,15.2,0004.5,0006.05,0017.52,0004.79
